GW3759 Weather Reports


Display with metric or nautical units.
time (UTC)temp
F
wind
direction
speed
MPH
gust
MPH
rain 1hr
in
rain 24hr
in
rain mn
in
humidity
%
barometer
mb
20260902141517 82 130 0.0 2.0 0.00 0.00 0.00 78 1018.5
20260902140019 81 169 0.0 2.0 0.00 0.00 0.00 80 1018.4
20260902134513 80 184 0.0 2.0 0.00 0.00 0.00 81 1018.3
20260902133008 80 153 1.0 2.0 0.00 0.00 0.00 82 1018.3
20260902131513 79 351 0.0 2.0 0.00 0.00 0.00 83 1018.2
20260902130022 78 350 0.0 1.0 0.00 0.00 0.00 85 1018.1
20260902124527 78 350 0.0 4.0 0.00 0.00 0.00 85 1018.2
20260902123022 77 324 0.0 3.0 0.00 0.00 0.00 86 1018.1
20260902121502 76 352 1.0 3.0 0.00 0.00 0.00 88 1018.2
20260902120005 76 165 0.0 2.0 0.00 0.00 0.00 91 1018.3
20260902114504 75 165 0.0 4.0 0.00 0.00 0.00 90 1018.2
20260902113004 74 338 0.0 1.0 0.00 0.00 0.00 91 1018.2
20260902111504 75 338 0.0 1.0 0.00 0.00 0.00 90 1018.2
20260902110005 75 338 0.0 0.0 0.00 0.00 0.00 90 1018.2
20260902104509 75 338 0.0 0.0 0.00 0.00 0.00 89 1018.0
20260902103004 75 338 0.0 2.0 0.00 0.00 0.00 89 1018.0
20260902101509 75 338 0.0 2.0 0.00 0.00 0.00 90 1017.8
20260902100012 76 338 0.0 2.0 0.00 0.00 0.00 89 1017.6
20260902094512 76 338 0.0 0.0 0.00 0.00 0.00 88 1017.5
20260902093006 77 338 0.0 2.0 0.00 0.00 0.00 87 1017.3
20260902091505 77 338 0.0 2.0 0.00 0.00 0.00 86 1017.3
20260902090013 77 338 0.0 2.0 0.00 0.00 0.00 86 1017.4
20260902084520 77 338 0.0 0.0 0.00 0.00 0.00 83 1017.4
20260902083015 77 338 0.0 0.0 0.00 0.00 0.00 85 1017.4
20260902081505 77 338 0.0 2.0 0.00 0.00 0.00 87 1017.4
20260902080008 77 345 0.0 3.0 0.00 0.00 0.00 87 1017.5
20260902074513 77 360 2.0 3.0 0.00 0.00 0.00 87 1017.6
20260902073024 77 307 0.0 6.0 0.00 0.00 0.00 88 1017.4
20260902071530 76 339 1.0 3.0 0.00 0.00 0.00 90 1017.2
20260902070007 76 274 0.0 2.0 0.00 0.00 0.00 91 1017.0
20260902064527 76 274 0.0 2.0 0.00 0.00 0.00 90 1016.9
20260902063013 77 180 0.0 2.0 0.00 0.00 0.00 91 1016.7
20260902061510 77 180 0.0 1.0 0.00 0.00 0.00 90 1016.7
20260902060004 77 180 0.0 0.0 0.00 0.00 0.00 90 1016.8
20260902054506 78 180 0.0 2.0 0.00 0.00 0.00 90 1016.8
20260902053006 78 148 0.0 2.0 0.00 0.00 0.00 91 1017.0
20260902051518 78 352 0.0 1.0 0.00 0.00 0.00 90 1017.1
20260902050007 78 352 0.0 2.0 0.00 0.00 0.00 91 1016.9
20260902044513 78 352 0.0 1.0 0.00 0.00 0.00 91 1017.1
20260902043013 78 352 0.0 2.0 0.00 0.00 0.00 92 1017.0
20260902041523 78 352 0.0 2.0 0.00 0.00 0.00 92 1016.8
20260902040007 78 352 0.0 1.0 0.00 0.00 0.00 92 1016.6
20260902034506 78 352 0.0 1.0 0.00 0.00 0.00 90 1016.4
20260902033011 78 352 1.0 2.0 0.00 0.00 0.00 90 1016.2
20260902031514 79 352 0.0 0.0 0.00 0.00 0.00 89 1016.2
20260902030012 79 352 0.0 2.0 0.00 0.00 0.00 88 1016.3
20260902024504 79 352 0.0 0.0 0.00 0.00 0.00 87 1016.2
20260902023003 80 352 0.0 2.0 0.00 0.00 0.00 88 1016.2
20260902021515 80 352 0.0 2.0 0.00 0.00 0.00 88 1016.2
20260902020044 80 352 1.0 3.0 0.00 0.00 0.00 88 1016.2
20260902014519 81 352 0.0 1.0 0.00 0.00 0.00 88 1015.9
20260902013009 81 352 0.0 2.0 0.00 0.00 0.00 88 1015.8
20260902011517 81 146 0.0 1.0 0.00 0.00 0.00 87 1015.6
20260902010016 81 146 0.0 2.0 0.00 0.00 0.00 87 1015.3
20260902004528 82 146 0.0 1.0 0.00 0.00 0.00 87 1015.0
20260902003028 83 146 0.0 0.0 0.00 0.00 0.00 87 1014.7
20260902001511 83 146 0.0 0.0 0.00 0.00 0.00 86 1014.7
20260902000024 84 146 0.0 0.0 0.00 0.00 0.00 85 1014.5
20260901234515 85 146 0.0 0.0 0.00 0.00 0.00 84 1014.6
20260901233003 85 146 0.0 0.0 0.00 0.00 0.00 82 1014.8
20260901231509 86 146 0.0 0.0 0.00 0.00 0.00 81 1014.5
20260901230006 87 146 0.0 0.0 0.00 0.00 0.00 79 1014.8
20260901224503 88 146 0.0 0.0 0.00 0.00 0.00 75 1015.0
20260901223003 90 146 0.0 0.0 0.00 0.00 0.00 72 1014.9
20260901221503 91 146 0.0 4.0 0.00 0.00 0.00 65 1015.1
20260901220013 92 159 1.0 5.0 0.00 0.00 0.00 62 1015.2
20260901214507 91 171 0.0 4.0 0.00 0.00 0.00 66 1015.2
20260901213003 92 123 1.0 6.0 0.00 0.00 0.00 61 1015.3
20260901211504 92 126 3.0 8.0 0.00 0.00 0.00 60 1015.1
20260901210009 92 178 4.0 7.0 0.00 0.00 0.00 59 1015.2
20260901204503 92 113 3.0 8.0 0.00 0.00 0.00 61 1015.3
20260901203020 91 164 2.0 5.0 0.00 0.00 0.00 59 1015.5
20260901201504 91 159 1.0 6.0 0.00 0.00 0.00 63 1015.8
20260901200004 91 281 1.0 9.0 0.00 0.00 0.00 61 1015.8
20260901194508 91 184 4.0 10.0 0.00 0.00 0.00 63 1016.0
20260901193004 91 165 1.0 7.0 0.00 0.00 0.00 62 1016.2
20260901191504 91 101 1.0 5.0 0.00 0.00 0.00 58 1016.4
20260901190004 91 98 0.0 4.0 0.00 0.00 0.00 60 1016.4
20260901184507 91 155 4.0 10.0 0.00 0.00 0.00 60 1016.4
20260901183022 91 292 0.0 5.0 0.00 0.00 0.00 59 1016.5
20260901181512 91 269 0.0 2.0 0.00 0.00 0.00 60 1016.5
20260901180007 90 47 1.0 7.0 0.00 0.00 0.00 60 1016.7
20260901174503 90 283 0.0 5.0 0.00 0.00 0.00 61 1016.7
20260901173002 89 130 2.0 8.0 0.00 0.00 0.00 62 1016.8
20260901171502 89 152 1.0 7.0 0.00 0.00 0.00 62 1016.7
20260901170004 89 159 3.0 6.0 0.00 0.00 0.00 65 1016.7
20260901164503 88 156 2.0 6.0 0.00 0.00 0.00 64 1017.0
20260901163017 88 259 0.0 7.0 0.00 0.00 0.00 63 1017.1
20260901161509 87 161 0.0 6.0 0.00 0.00 0.00 65 1017.1
20260901160003 87 155 4.0 6.0 0.00 0.00 0.00 68 1017.4
20260901154507 87 148 2.0 8.0 0.00 0.00 0.00 66 1017.4
20260901153004 86 148 3.0 6.0 0.00 0.00 0.00 70 1017.6
20260901151504 85 158 2.0 6.0 0.00 0.00 0.00 72 1017.7
20260901150008 85 134 1.0 4.0 0.00 0.00 0.00 72 1017.8
20260901144506 84 141 1.0 4.0 0.00 0.00 0.00 74 1017.9
20260901143005 83 126 0.0 5.0 0.00 0.00 0.00 75 1017.9